This is the latest recevied weather packets stored in our database for station/object KA1JKB. If no packets are shown the sender has not sent any weather packets the latest 10 day(s).
| Time | Temp. | Humidity | Pressure | Rain* | Wind** | Luminosity | Snow |
|---|---|---|---|---|---|---|---|
| 1777404866 | 15.56° C | 80% | 1009.7 hPa | 0 mm | - | 810 W/m² | - |
| 1777404564 | 15.56° C | 79% | 1009.9 hPa | 0 mm | - | 525 W/m² | - |
| 1777404260 | 15.56° C | 82% | 1010 hPa | 0 mm | - | 585 W/m² | - |
| 1777403956 | 15° C | 83% | 1009.8 hPa | 0 mm | - | 449 W/m² | - |
| 1777403650 | 14.44° C | 82% | 1009.8 hPa | 0 mm | - | 390 W/m² | - |
| 1777403349 | 14.44° C | 85% | 1009.7 hPa | 0 mm | - | 354 W/m² | - |
| 1777403044 | 14.44° C | 84% | 1009.8 hPa | 0 mm | - | 438 W/m² | - |
| 1777402740 | 14.44° C | 83% | 1009.9 hPa | 0 mm | - | 383 W/m² | - |
| 1777402435 | 13.89° C | 83% | 1009.8 hPa | 0 mm | - | 399 W/m² | - |
| 1777402134 | 13.89° C | 83% | 1009.6 hPa | 0 mm | - | 435 W/m² | - |
| 1777401829 | 13.89° C | 84% | 1009.6 hPa | 0 mm | - | 392 W/m² | - |
| 1777401529 | 13.89° C | 84% | 1009.5 hPa | 0 mm | - | 353 W/m² | - |
| 1777401224 | 13.89° C | 83% | 1009.8 hPa | 0 mm | - | 429 W/m² | - |
| 1777400920 | 13.33° C | 84% | 1009.6 hPa | 0 mm | - | 446 W/m² | - |
| 1777400616 | 13.33° C | 84% | 1009.7 hPa | 0 mm | - | 393 W/m² | - |
| 1777400314 | 13.33° C | 86% | 1009.7 hPa | 0 mm | - | 308 W/m² | - |
| 1777400009 | 12.78° C | 85% | 1009.5 hPa | 0 mm | - | 361 W/m² | - |
| 1777399707 | 12.78° C | 88% | 1009.4 hPa | 0 mm | - | 288 W/m² | - |
| 1777399404 | 13.33° C | 88% | 1009.5 hPa | 0 mm | - | 246 W/m² | - |
| 1777399101 | 13.33° C | 87% | 1009.5 hPa | 0 mm | - | 272 W/m² | - |
| 1777398799 | 13.33° C | 87% | 1009.3 hPa | 0 mm | - | 394 W/m² | - |
| 1777398496 | 13.33° C | 88% | 1009.3 hPa | 0 mm | - | 367 W/m² | - |
| 1777398192 | 12.78° C | 88% | 1009.2 hPa | 0 mm | - | 263 W/m² | - |
| 1777397889 | 12.78° C | 89% | 1009.2 hPa | 0 mm | - | 222 W/m² | - |
| 1777397584 | 12.78° C | 89% | 1009.3 hPa | 0 mm | - | 213 W/m² | - |
* Rain latest hour (hover to see other rain measurements)
** Current wind speed in m/s (hover to see current wind gust speed)